Other Public Products
Issued by NWS Grand Forks, ND

Home | Current Version | Previous Version | Graphics & Text | Print | Product List | Glossary On
Versions: 1 2 3 4 5 6 7 8 9 10 11 12 13 14 15 16 17 18 19 20 21 22 23 24 25 26 27 28 29 30 31 32 33 34 35 36 37 38 39 40 41 42 43 44 45 46 47 48 49 50
000
FPUS83 KFGF 271610
OPUFGF
PRAIRIE TO PINES WEATHER ROUNDUP
NATIONAL WEATHER SERVICE EASTERN NORTH DAKOTA/GRAND FORKS ND
1100 AM CDT THU JUL 27 2017

 **SATELLITE DATA USED TO AUGMENT SKY COVER AT AUTOMATED STATIONS**
 *****  WEATHER ACROSS EASTERN NORTH DAKOTA  *****

CITY           SKY/WX    TMP DP  RH WIND       PRES   REMARKS
GRAND FORKS    FAIR      78  63  59 CALM      30.12F
GRAND FORKS AF FAIR      79  61  54 W5        30.13S
GRAND CITY NWS NOT AVBL
BUXTON         NOT AVBL
DEVILS LAKE    FAIR      75  60  59 VRB3      30.15S
FARGO          FAIR      78  62  57 CALM      30.12F
WAHPETON ARPT  FAIR      77  61  57 CALM      30.14R
$$

 *****  WEATHER ACROSS CENTRAL AND WESTERN NORTH DAKOTA  *****

CITY           SKY/WX    TMP DP  RH WIND       PRES   REMARKS
JAMESTOWN      FAIR      77  57  50 E5        30.14S
BISMARCK       FAIR      77  60  55 S6        30.13F
MINOT          FAIR      74  57  55 S6        30.11S
MINOT AFB      FAIR      73  59  61 SW3       30.10S
GARRISON         N/A     63  62  97 SW9       30.14F
WILLISTON      FAIR      67  60  78 S6        30.11R
DICKINSON      FAIR      77  59  53 SE16      30.10S
HETTINGER      FAIR      80  57  45 SE17      30.12S
$$

 *****  OTHER OBSERVATIONS NORTHEAST NORTH DAKOTA  *****

CITY           SKY/WX    TMP DP  RH WIND       PRES   REMARKS
WALHALLA       NOT AVBL
LANGDON        FAIR      77  63  61 VRB6      30.15S
CAVALIER       FAIR      77  63  61 NW7       30.11S
GRAFTON        FAIR      79  63  57 CALM      30.13S
CANDO          NOT AVBL
FORT TOTTEN      N/A     78  59  51 S2        29.95S
ROLLA            N/A     75  59  57 SE5       30.15F
RUGBY          NOT AVBL
 ***** THE ABOVE OBSERVATIONS ARE NON NWS ARE NOT QUALITY
        CONTROLLED AND MAY MIS-REPORT RAIN FOR SNOW...
$$

 *****  OTHER OBSERVATIONS SOUTHEAST NORTH DAKOTA *****

CITY           SKY/WX    TMP DP  RH WIND       PRES   REMARKS
COOPERSTOWN    FAIR      73  64  73 CALM      30.16R
VALLEY CITY    FAIR      75  57  53 S3        30.16S
OAKES          NOT AVBL
GWINNER        SUNNY     77  61  57 CALM      30.14F
SHEYENNE NWR     N/A     79  61  53 CALM      29.95S
BUFFALO        NOT AVBL
WYNDMERE       NOT AVBL
 ***** THE ABOVE OBSERVATIONS ARE NON NWS ARE NOT QUALITY
       CONTROLLED AND MAY MIS-REPORT RAIN FOR SNOW...
$$

  *****  WEATHER ACROSS NORTHERN MINNESOTA  *****

CITY           SKY/WX    TMP DP  RH WIND       PRES   REMARKS
FLAG ISLAND    FAIR      75  61  60 CALM      30.11R
WARROAD        FAIR      75  66  73 CALM      30.12S
ROSEAU         FAIR      75  63  64 CALM      30.12S
HALLOCK        FAIR      77  63  61 NW7       30.11S
THF RVR FALLS    N/A     74  64  71 SW6       30.15S
HALSTAD        NOT AVBL
FOSSTON        FAIR      77  61  57 NW3       30.15S
BAUDETTE       NOT AVBL
WASKISH        FAIR      75  64  69 W5        30.13S
CROOKSTON      FAIR      73  63  68 NW3       30.14S
$$
  *****  WEATHER ACROSS CENTRAL AND WEST MINNESOTA  *****

CITY           SKY/WX    TMP DP  RH WIND       PRES   REMARKS
BEMIDJI        FAIR      77  58  52 N3        30.14R
PARK RAPIDS    FAIR      77  58  51 N7        30.13F
WADENA         FAIR      75  61  60 NE3       30.13S
DETROIT LAKES  FAIR      75  59  57 CALM      30.16R
MOORHEAD       FAIR      75  63  64 CALM      30.14S
FERGUS FALLS   FAIR      77  61  57 CALM      30.12S
ELBOW LAKE       N/A     76  62  62 CALM      30.14S HAZE
MORRIS MN      FAIR      81  64  57 CALM      30.13S
STAPLES        FAIR      75  59  57 NE3       30.13S
WHEATON        FAIR      75  63  64 CALM      30.15S
$$
  *****  WEATHER ELSEWHERE ACROSS MINNESOTA  *****

CITY           SKY/WX    TMP DP  RH WIND       PRES   REMARKS
DULUTH         FAIR      75  60  59 SE8       30.11S
INTRNTL FALLS  FAIR      78  58  49 CALM      30.11S
ELY            FAIR      75  54  46 CALM      30.12R
CLOQUET        FAIR      75  55  50 E3        30.12R
BRAINERD       FAIR      77  60  55 N6        30.12S
HIBBING        FAIR      75  57  53 CALM      30.12R
ALEXANDRIA     FAIR      77  61  57 VRB5      30.15S
SAINT CLOUD    FAIR      77  63  61 CALM      30.11S
MINNEAPOLIS    FAIR      80  60  50 CALM      30.09R
$$

  *****  WEATHER ACROSS SOUTH DAKOTA  *****

CITY           SKY/WX    TMP DP  RH WIND       PRES   REMARKS
SIOUX FALLS    FAIR      78  65  63 CALM      30.13R
BROOKINGS      FAIR      74  62  66 N5        30.15S
WATERTOWN      FAIR      74  60  61 NE6       30.15S
HURON          FAIR      76  61  59 VRB3      30.14S
SISSETON         N/A     79  60  52 VRB3      30.13F
ABERDEEN       FAIR      76  62  62 VRB5      30.15F
MITCHELL       FAIR      78  64  61 E5        30.14S
PIERRE         FAIR      81  54  39 SE8       30.12S
MOBRIDGE       FAIR      79  63  57 S8        30.12S
RAPID CITY     PTSUNNY   77  62  59 S17G24    30.14F
$$

  *****  SOME WEATHER IN NEARBY STATES *****

CITY           SKY/WX    TMP DP  RH WIND       PRES   REMARKS
GLASGOW MT     FAIR      76  52  43 E23G31    30.00R
GREAT FALLS MT FAIR      81  44  27 SW13      30.05F
CHEYENNE WY    PTSUNNY   70  59  68 S13       30.31S
SCOTTSBLUFF NE CLOUDY    74  65  73 SE12      30.20S
OMAHA NE       FAIR      80  65  59 N9        30.07R
DES MOINES IA  FAIR      80  68  66 NE10      30.01S
DAVENPORT IA   CLOUDY    76  70  82 NE5       30.00S
CHICAGO IL     PTSUNNY   82  69  64 NE10      29.95S
EAU CLAIRE WI  FAIR      78  61  55 NE6       30.06S
LA CROSSE WI   FAIR      81  65  58 NW8       30.04R
$$

  *****  SOME NATIONAL WEATHER *****

CITY           SKY/WX    TMP DP  RH WIND       PRES   REMARKS
LA GUARDIA NY  PTSUNNY   77  67  71 SW12G20   29.99F
RALEIGH NC     PTSUNNY   88  68  51 SW14      30.05F HX  91
ATLANTA GA     FAIR      86  70  58 VRB5      30.08F HX  90
NEW ORLEANS LA FAIR      88  76  67 N8        30.08S HX  99
OKLAHOMA CITY  FAIR      87  65  47 W14       30.00R
ALBUQUERQUE NM PTSUNNY   75  61  61 SE7       30.28S
SALT LAKE CITY FAIR      76  60  57 S5        30.18F
LOS ANGELES CA PTSUNNY   71  65  81 W9        29.97S
BOISE ID       FAIR      77  52  41 CALM      30.11S
SEATTLE WA     CLOUDY    58  53  84 SW8       30.17R
$$

*** WEATHER ACROSS MANITOBA...SASKATCHEWAN AND ONTARIO ***
                ***ONTARIO***

CITY           SKY/WX    TMP DP  RH WIND       PRES   REMARKS
GERALDTON      MOSUNNY   46  25  42 S5        30.10S
THUNDER BAY    PTSUNNY   73  57  56 S6        30.10R
SIOUX LOOKOUT  MOSUNNY   75  59  57 N6        30.11S
TORONTO        PTSUNNY   73  68  83 VRB5      29.92F
BIG TROUT LK   CLOUDY    66  55  68 VRB2      30.09S
PICKLE LAKE    MOSUNNY   72  50  46 NE5       30.11S
DRYDEN         MOSUNNY   77  57  50 NW3       30.11S
KENORA         MOSUNNY   77  61  57 VRB2      30.12F
$$
                *** MANITOBA***

CITY           SKY/WX    TMP DP  RH WIND       PRES   REMARKS
BRANDON        MOSUNNY   77  64  65 W3        30.12S
DAUPHIN        SUNNY     79  63  57 W5        30.10S
ISLAND LAKE    PTSUNNY   73  57  56 SW6       30.05F
PILOT MOUND      N/A     75  59  57 SW3         N/A
THE PAS        MOSUNNY   79  61  53 SE8       30.04S
THOMPSON       PTSUNNY   75  63  64 SW6       29.98F
WINNIPEG       MOSUNNY   77  64  65 N5        30.11S
LYNN LAKE      SUNNY     77  59  53 W3        29.96S
CHURCHILL      MOSUNNY   66  48  52 E13       29.97S
GILLAM         PTSUNNY   75  59  57 SW3       29.98S
$$
                ***SASKATCHEWAN***

CITY           SKY/WX    TMP DP  RH WIND       PRES   REMARKS
ESTEVAN        PTSUNNY   77  59  53 SW12      30.09R
KINDERSLEY     MOSUNNY   77  55  47 S10       29.96F
LLOYDMINSTER   MOSUNNY   70  57  64 S10       29.93S
PRINCE ALBERT  MOSUNNY   72  61  68 SE5       30.03S
REGINA         MOSUNNY   77  57  50 SE13G18   30.05S
YORKTON        SUNNY     75  61  60 SE6       30.10S



USA.gov is the U.S. government's official web portal to all federal, state and local government web resources and services.